Change the Weather History Date:

Monday, March 17, 2014

  Actual Average Record
Temperature  
Mean Temperature 10 °F -  
Max Temperature 21 °F 31 °F 62 °F (2009)
Min Temperature -1 °F 18 °F -2 °F (1976)
Degree Days  
Heating Degree Days 55    
Moisture  
Dew Point 5 °F    
Average Humidity 70    
Maximum Humidity 85    
Minimum Humidity 50    
Precipitation  
Precipitation 0.00 in - - ()
Sea Level Pressure  
Sea Level Pressure 30.04 in    
Wind  
Wind Speed 7 mph (ESE)    
Max Wind Speed 16 mph    
Max Gust Speed 25 mph    
Visibility 10 miles    
Events      
Averages and records for this station are not official NWS values.
T = Trace of Precipitation, MM = Missing Value Source: NWS Daily Summary

Daily Weather History Graph

Daily Weather History Graph

Search for Another Location

Airport or City:

Trip Planner

Search our weather history database for the weather conditions in past years. The results will help you decide how hot, cold, wet, or windy it might be!

Date:

Astronomy

Mar. 17, 2014 Rise Set
Actual Time 7:47 AM EDT 7:47 PM EDT
Civil Twilight 7:17 AM EDT 8:16 PM EDT
Nautical Twilight 6:42 AM EDT 8:51 PM EDT
Astronomical Twilight 6:07 AM EDT 9:27 PM EDT
Moon 9:08 PM EDT (3/17) 7:58 AM EDT (3/17)
Length of Visible Light 12h 59m
Length of Day
11h 59m
Full, 99% of the Moon is Illuminated
Mar 17
Full
Mar 23
Last Quarter
Mar 30
New
Apr 7
First Quarter
Apr 15
Full

Hourly Weather History & Observations

Time (EDT) Temp. Windchill Dew Point Humidity Pressure Visibility Wind Dir Wind Speed Gust Speed Precip Events Conditions
12:19 AM 0.7 °F -9.1 °F -3.8 °F 81% 30.22 in 10.0 mi North 4.6 mph - N/A   Clear
12:39 AM 0.3 °F -7.5 °F -4.2 °F 81% 30.21 in 10.0 mi North 3.5 mph - N/A   Clear
12:59 AM -0.4 °F -10.4 °F -4.4 °F 83% 30.20 in 10.0 mi North 4.6 mph - N/A   Clear
1:19 AM 0.3 °F -7.5 °F -3.1 °F 85% 30.20 in 10.0 mi NNE 3.5 mph - N/A   Clear
1:39 AM -0.4 °F - -4.7 °F 82% 30.19 in 10.0 mi Calm Calm - N/A   Clear
1:59 AM -1.1 °F - -5.3 °F 83% 30.18 in 10.0 mi Calm Calm - N/A   Clear
2:19 AM -1.3 °F - -5.1 °F 84% 30.18 in 10.0 mi Calm Calm - N/A   Clear
2:39 AM -1.3 °F - -5.1 °F 84% 30.17 in 10.0 mi Calm Calm - N/A   Clear
2:59 AM -1.5 °F - -5.4 °F 83% 30.16 in 10.0 mi Calm Calm - N/A   Clear
3:19 AM 0.9 °F -14.2 °F -2.7 °F 85% 30.15 in 10.0 mi SSE 9.2 mph - N/A   Clear
3:39 AM 2.1 °F -12.6 °F -2.7 °F 80% 30.15 in 10.0 mi SSE 9.2 mph - N/A   Clear
3:59 AM 3.6 °F -10.9 °F -2.2 °F 77% 30.14 in 10.0 mi SSE 9.2 mph - N/A   Clear
4:19 AM 4.5 °F -7.6 °F -2.4 °F 73% 30.13 in 10.0 mi SSE 6.9 mph - N/A   Clear
4:39 AM 5.0 °F -4.1 °F -3.6 °F 68% 30.12 in 10.0 mi SSE 4.6 mph - N/A   Scattered Clouds
4:59 AM 5.0 °F -6.9 °F -4.2 °F 66% 30.12 in 10.0 mi SSE 6.9 mph - N/A   Scattered Clouds
5:19 AM 4.6 °F -7.4 °F -4.9 °F 65% 30.11 in 10.0 mi SSE 6.9 mph - N/A   Clear
5:39 AM 5.0 °F -6.9 °F -5.4 °F 62% 30.11 in 10.0 mi SE 6.9 mph - N/A   Clear
5:59 AM 5.9 °F -4.5 °F -6.0 °F 58% 30.11 in 10.0 mi SE 5.8 mph - N/A   Clear
6:19 AM 5.9 °F -4.5 °F -6.3 °F 57% 30.11 in 10.0 mi SE 5.8 mph - N/A   Clear
6:39 AM 6.4 °F -6.3 °F -4.9 °F 60% 30.10 in 10.0 mi SE 8.1 mph - N/A   Clear
6:59 AM 7.7 °F -4.8 °F -4.0 °F 59% 30.09 in 10.0 mi ESE 8.1 mph - N/A   Clear
7:19 AM 7.5 °F -2.6 °F -4.2 °F 59% 30.08 in 10.0 mi ESE 5.8 mph - N/A   Clear
7:39 AM 8.1 °F -3.2 °F -4.0 °F 58% 30.08 in 10.0 mi SE 6.9 mph - N/A   Clear
7:59 AM 8.2 °F -1.8 °F -4.0 °F 58% 30.08 in 10.0 mi SE 5.8 mph - N/A   Clear
8:19 AM 6.6 °F -5.0 °F -4.2 °F 61% 30.08 in 10.0 mi SE 6.9 mph - N/A   Clear
8:39 AM 7.9 °F -3.5 °F -2.2 °F 64% 30.08 in 10.0 mi SE 6.9 mph - N/A   Clear
8:59 AM 9.5 °F 1.2 °F -1.3 °F 62% 30.08 in 10.0 mi SE 4.6 mph - N/A   Clear
9:19 AM 10.0 °F 1.8 °F -0.0 °F 64% 30.08 in 10.0 mi SE 4.6 mph - N/A   Scattered Clouds
9:39 AM 10.8 °F - 1.6 °F 67% 30.08 in 10.0 mi Calm Calm - N/A   Mostly Cloudy
9:59 AM 11.1 °F 0.4 °F 2.3 °F 68% 30.07 in 10.0 mi SE 6.9 mph - N/A   Mostly Cloudy
10:19 AM 11.3 °F -0.4 °F 2.3 °F 67% 30.07 in 10.0 mi SSE 8.1 mph - N/A   Mostly Cloudy
10:39 AM 12.0 °F 4.1 °F 1.9 °F 64% 30.07 in 10.0 mi SSE 4.6 mph - N/A   Mostly Cloudy
10:59 AM 12.9 °F 2.6 °F 0.7 °F 58% 30.06 in 10.0 mi SSE 6.9 mph - N/A   Mostly Cloudy
11:19 AM 14.4 °F 1.6 °F 1.0 °F 56% 30.05 in 10.0 mi SSE 10.4 mph - N/A   Scattered Clouds
11:39 AM 15.6 °F 3.2 °F 2.1 °F 55% 30.05 in 10.0 mi SSE 10.4 mph 16.1 mph N/A   Clear
11:59 AM 16.0 °F 7.4 °F 2.7 °F 56% 30.04 in 10.0 mi SE 5.8 mph 17.3 mph N/A   Scattered Clouds
12:19 PM 17.1 °F 6.6 °F 2.3 °F 52% 30.03 in 10.0 mi SSE 8.1 mph - N/A   Scattered Clouds
12:38 PM 17.6 °F 8.2 °F 2.5 °F 52% 30.03 in 10.0 mi SSE 6.9 mph - N/A   Scattered Clouds
12:59 PM 18.1 °F 7.9 °F 2.3 °F 50% 30.02 in 10.0 mi SSE 8.1 mph - N/A   Clear
1:19 PM 19.6 °F 10.6 °F 4.6 °F 52% 30.01 in 10.0 mi SSE 6.9 mph - N/A   Scattered Clouds
1:39 PM 19.4 °F 7.2 °F 8.1 °F 61% 30.00 in 10.0 mi East 11.5 mph - N/A   Mostly Cloudy
1:59 PM 19.9 °F 5.7 °F 9.7 °F 64% 29.99 in 10.0 mi East 16.1 mph - N/A   Overcast
2:19 PM 20.1 °F 7.5 °F 11.3 °F 69% 29.98 in 10.0 mi East 12.7 mph 20.7 mph N/A   Overcast
2:39 PM 20.8 °F 6.8 °F 11.7 °F 68% 29.96 in 10.0 mi East 16.1 mph 23.0 mph N/A   Mostly Cloudy
2:59 PM 20.5 °F 6.9 °F 11.8 °F 69% 29.96 in 10.0 mi ESE 15.0 mph 21.9 mph N/A   Scattered Clouds
3:20 PM 20.7 °F 8.2 °F 12.4 °F 70% 29.95 in 10.0 mi East 12.7 mph 21.9 mph N/A   Scattered Clouds
3:39 PM 20.3 °F 7.7 °F 13.3 °F 74% 29.95 in 10.0 mi East 12.7 mph 24.2 mph N/A   Scattered Clouds
3:59 PM 20.8 °F 10.4 °F 14.0 °F 75% 29.95 in 10.0 mi East 9.2 mph 21.9 mph N/A   Mostly Cloudy
4:19 PM 21.2 °F 10.1 °F 14.5 °F 75% 29.94 in 10.0 mi East 10.4 mph 20.7 mph N/A   Scattered Clouds
4:39 PM 21.2 °F 12.6 °F 14.9 °F 77% 29.94 in 10.0 mi East 6.9 mph 20.7 mph N/A   Mostly Cloudy
5:00 PM 21.6 °F 8.2 °F 15.3 °F 77% 29.93 in 10.0 mi East 15.0 mph 21.9 mph N/A   Overcast
5:19 PM 21.2 °F 7.8 °F 14.9 °F 77% 29.93 in 10.0 mi East 15.0 mph 24.2 mph N/A   Overcast
5:39 PM 21.2 °F 8.3 °F 14.4 °F 75% 29.92 in 10.0 mi East 13.8 mph 23.0 mph N/A   Overcast
6:00 PM 21.0 °F 8.1 °F 14.7 °F 77% 29.92 in 10.0 mi East 13.8 mph 23.0 mph N/A   Overcast
6:19 PM 20.7 °F 9.5 °F 14.5 °F 77% 29.93 in 10.0 mi East 10.4 mph 23.0 mph N/A   Overcast
6:39 PM 20.3 °F 8.3 °F 14.5 °F 78% 29.93 in 10.0 mi East 11.5 mph 21.9 mph N/A   Overcast
7:00 PM 20.3 °F 7.2 °F 14.5 °F 78% 29.93 in 10.0 mi East 13.8 mph 23.0 mph N/A   Overcast
7:19 PM 20.3 °F 6.1 °F 14.0 °F 77% 29.94 in 10.0 mi ESE 16.1 mph 25.3 mph N/A   Overcast
7:39 PM 20.1 °F 6.9 °F 14.2 °F 78% 29.93 in 10.0 mi East 13.8 mph 21.9 mph N/A   Overcast
7:59 PM 19.9 °F 8.6 °F 13.5 °F 76% 29.93 in 10.0 mi East 10.4 mph 19.6 mph N/A   Overcast
8:19 PM 19.8 °F 8.3 °F 13.1 °F 75% 29.93 in 10.0 mi ESE 10.4 mph 20.7 mph N/A   Overcast
8:40 PM 19.8 °F 8.3 °F 12.9 °F 75% 29.93 in 10.0 mi ESE 10.4 mph 20.7 mph N/A   Overcast
8:59 PM 19.4 °F 7.2 °F 13.1 °F 76% 29.94 in 10.0 mi ESE 11.5 mph 19.6 mph N/A   Overcast
9:19 PM 19.2 °F 6.4 °F 13.1 °F 77% 29.94 in 10.0 mi ESE 12.7 mph 20.7 mph N/A   Overcast
9:40 PM 19.2 °F 7.7 °F 13.3 °F 78% 29.94 in 10.0 mi ESE 10.4 mph 17.3 mph N/A   Overcast
9:59 PM 19.2 °F 7.7 °F 12.6 °F 75% 29.95 in 10.0 mi ESE 10.4 mph 16.1 mph N/A   Overcast
10:19 PM 19.2 °F 10.2 °F 12.2 °F 74% 29.95 in 10.0 mi ESE 6.9 mph 17.3 mph N/A   Overcast
10:40 PM 19.2 °F 7.7 °F 12.0 °F 74% 29.95 in 10.0 mi ESE 10.4 mph 17.3 mph N/A   Overcast
10:59 PM 19.4 °F 7.9 °F 10.2 °F 68% 29.94 in 10.0 mi ESE 10.4 mph 17.3 mph N/A   Overcast
11:19 PM 19.2 °F 7.0 °F 10.9 °F 70% 29.95 in 10.0 mi ESE 11.5 mph 17.3 mph N/A   Overcast
11:39 PM 19.4 °F 8.6 °F 11.3 °F 71% 29.95 in 10.0 mi ESE 9.2 mph 16.1 mph N/A   Overcast
11:59 PM 19.4 °F 7.2 °F 11.7 °F 72% 29.95 in 10.0 mi ESE 11.5 mph - N/A   Overcast